Theta_e
336 340 345 345 346 346 346 345 344 345 344 341 341 345 343 342 342 345 345 345 343 342 339 338 338 335 334 334 334 333 333 333 333 333 333 334 335 335 335 334 335 330 334
338 340 344 345 346 346 345 346 345 346 344 344 344 344 342 341 340 340 343 344 342 340 338 337 336 335 333 332 333 332 332 330 330 330 335 333 332 333 333 332 332 330 332
338 339 343 346 346 347 345 346 345 344 341 341 341 340 340 339 339 338 338 339 343 340 338 337 336 335 333 332 332 332 331 330 329 331 333 326 325 333 332 331 330 331 331
339 338 340 344 347 346 346 345 345 344 341 340 339 338 337 336 337 337 336 336 336 339 340 336 335 334 333 332 330 330 330 329 329 331 324 324 326 330 330 328 329 331 330
339 339 340 343 346 345 345 346 345 345 342 341 339 337 335 335 334 335 336 335 334 335 340 337 336 333 332 332 330 328 327 327 330 327 321 320 323 329 329 328 328 328 328
339 340 340 344 344 344 345 344 344 344 343 341 338 336 334 334 334 334 335 333 334 333 335 339 336 334 333 332 331 329 328 329 332 320 320 323 326 331 328 327 325 325 325
338 338 339 342 343 344 343 344 345 344 343 340 339 337 334 334 333 334 334 333 333 331 331 331 334 335 334 333 332 330 330 331 327 322 319 319 323 328 330 327 326 325 324
338 337 338 337 340 342 342 344 345 346 344 342 340 339 337 335 333 333 333 333 331 330 329 330 328 328 330 330 331 331 332 330 324 319 318 319 327 325 327 331 329 327 326
338 338 337 338 338 335 338 339 342 343 342 342 341 341 339 338 337 336 335 334 332 331 330 330 330 328 327 329 329 331 329 327 321 317 318 317 328 324 327 330 331 332 330
337 338 338 337 337 336 335 333 335 338 340 340 338 336 333 334 335 334 332 334 334 334 333 333 333 332 331 330 330 328 326 325 320 320 320 319 326 324 326 328 332 332 333
336 336 337 337 337 337 334 332 329 332 334 334 333 330 329 333 333 332 330 332 336 336 337 337 336 335 332 331 331 328 326 322 321 321 321 325 326 325 329 330 331 333 333
332 334 335 336 336 336 337 331 331 333 333 333 332 331 329 331 332 333 327 328 332 332 334 336 336 334 329 327 326 327 324 323 322 322 322 327 327 327 330 331 332 332 333
331 332 334 334 335 334 333 334 332 332 330 330 329 329 329 328 329 328 328 328 328 323 328 331 330 330 328 328 327 325 325 324 324 324 324 328 330 330 331 333 333 333 333
329 332 333 334 334 334 334 333 333 332 332 331 331 331 328 328 328 328 327 328 329 328 327 328 327 328 328 328 327 326 326 325 324 324 323 324 330 332 333 334 334 334 334
327 330 332 333 332 333 333 333 332 332 331 331 331 332 330 328 328 329 328 328 328 328 327 326 327 327 327 327 326 326 326 327 325 325 324 319 325 331 333 334 335 334 335
329 329 331 333 334 334 333 333 332 332 332 332 332 332 332 330 329 329 329 329 328 328 327 327 326 326 325 326 326 327 326 326 327 326 327 326 323 328 332 333 334 335 334
329 330 330 332 334 333 332 333 333 333 333 332 332 333 332 332 330 329 328 328 328 329 328 327 327 326 325 326 324 325 324 324 326 327 326 326 326 322 327 332 332 333 334
327 328 330 332 332 333 332 333 333 334 333 332 333 333 333 333 332 330 329 329 330 330 329 328 328 327 326 325 323 323 323 324 324 326 327 326 326 326 324 328 329 330 331
324 326 327 329 330 331 332 332 332 333 333 333 333 332 333 333 333 331 330 330 331 330 329 328 325 325 325 325 325 324 322 322 322 324 323 325 324 324 323 323 322 323 327
324 324 324 327 328 329 330 330 330 330 331 332 332 332 333 333 333 332 331 330 330 328 327 326 324 324 324 324 325 324 322 322 323 322 322 322 321 322 322 318 317 317 324
316 316 316 317 319 323 324 325 325 325 327 329 331 332 330 328 326 324 324 324 322 321 321 322 322 321 319 324 323 322 321 322 322 322 322 322 320 319 317 313 312 313 316
311 311 313 313 313 314 316 318 320 319 320 319 322 322 321 320 320 320 320 320 320 319 318 318 318 319 321 323 320 317 315 315 316 309 309 310 307 308 307 310 310 310 309
307 308 310 311 312 313 314 315 315 314 313 313 314 315 317 319 320 320 321 320 319 319 317 318 321 320 318 321 323 320 313 308 311 308 301 300 302 303 301 301 303 304 306
305 307 308 310 311 310 311 310 310 310 310 313 314 315 316 317 316 317 317 317 316 317 317 317 322 323 323 320 320 323 319 316 311 309 302 297 296 295 296 297 297 299 301
304 304 306 308 307 306 306 306 306 307 309 311 311 313 313 314 315 314 314 313 312 313 314 315 319 319 321 321 320 320 319 319 318 314 310 298 295 294 294 295 295 296 298
303 303 304 304 305 304 304 304 304 304 306 307 309 310 311 312 312 313 312 309 309 308 309 314 316 316 316 317 317 317 317 315 314 313 310 300 298 292 291 293 293 293 294
Wind_Speed
12 12 12 12 11 12 13 13 11 10 12 13 11 12 13 13 14 15 13 14 15 15 13 13 13 13 13 13 12 12 12 11 10 11 12 13 12 12 13 16 14 8 12
16 13 13 12 11 12 11 13 11 11 12 13 12 12 11 11 12 12 13 11 12 12 13 12 11 12 12 12 11 10 10 7 4 4 6 13 10 10 11 12 11 7 10
15 13 11 13 11 12 12 11 10 9 10 10 10 9 9 9 9 10 10 10 11 7 12 10 9 10 10 10 10 9 7 5 6 5 4 2 6 8 9 9 8 8 10
16 11 11 11 11 11 11 11 10 10 10 9 9 8 7 7 7 8 8 8 7 7 8 9 8 8 8 9 8 8 6 4 6 8 4 4 8 7 7 6 7 9 7
14 12 11 10 11 10 10 10 9 10 10 9 8 7 6 6 7 6 7 7 7 8 8 6 9 7 6 6 6 6 4 6 9 9 6 4 3 6 7 7 6 7 7
13 13 11 11 11 11 10 10 9 10 11 9 8 8 7 7 6 6 5 6 7 4 5 6 4 8 6 4 4 4 5 8 11 5 3 2 5 4 4 4 4 3 2
12 11 10 11 11 11 11 10 11 11 12 10 9 9 8 7 6 5 6 6 5 3 3 3 5 5 5 2 2 1 4 7 7 6 0 2 5 4 1 1 1 0 1
13 11 10 10 10 9 8 8 9 12 10 9 9 8 8 8 6 5 5 4 3 2 1 1 1 1 1 1 2 2 3 6 7 7 0 2 6 3 3 4 4 3 3
10 9 9 8 7 6 6 6 7 8 8 8 7 7 6 7 7 6 5 5 5 4 3 4 3 2 3 4 4 4 5 6 6 5 2 2 4 2 4 5 6 6 7
10 9 9 8 7 6 6 7 6 5 8 7 6 4 3 5 7 7 7 6 7 7 6 6 6 6 6 6 6 6 6 8 7 7 4 3 7 4 6 8 8 8 8
8 7 7 9 9 8 8 7 6 5 5 4 4 6 4 4 7 8 8 10 11 9 7 8 8 8 8 8 10 10 9 4 6 5 2 9 6 5 7 8 9 9 9
9 7 7 7 7 6 5 8 6 7 5 5 5 6 5 5 5 7 5 10 9 9 9 9 9 10 7 4 5 9 4 7 5 3 2 9 7 7 9 10 10 11 10
8 6 6 6 6 6 4 5 4 3 4 4 7 6 6 5 4 2 2 3 4 7 4 6 7 5 7 6 6 5 6 7 3 4 4 10 9 8 11 12 12 11 11
8 7 7 7 6 6 4 4 4 4 4 4 5 6 4 2 3 3 3 5 5 4 5 6 4 7 9 9 6 5 5 4 3 3 3 10 10 11 12 13 13 13 13
6 8 8 7 7 6 5 4 4 4 4 5 5 6 5 4 4 4 4 3 3 4 4 5 5 5 5 6 5 6 6 7 6 3 3 11 11 13 14 14 14 14 13
7 7 7 8 7 7 6 6 4 4 5 5 5 5 7 5 4 5 5 5 5 5 5 5 5 5 5 5 6 7 7 5 6 6 4 4 11 13 14 14 14 14 14
7 7 8 8 8 7 7 6 5 4 4 4 5 6 7 7 6 5 4 4 4 5 6 4 4 3 4 4 6 6 5 7 7 8 7 5 5 15 11 13 14 14 13
8 9 8 6 6 7 6 5 5 5 4 5 4 5 7 7 7 5 4 4 4 4 4 4 5 5 5 5 4 5 5 5 6 7 7 6 7 3 9 10 10 10 11
7 7 8 8 8 7 6 4 4 6 5 5 5 5 6 6 6 5 4 4 5 4 4 4 4 4 5 6 5 6 5 5 6 5 6 6 3 4 4 10 10 9 10
5 3 3 5 8 8 5 4 3 3 3 3 4 4 6 5 7 6 5 5 4 4 4 3 4 4 5 7 6 7 5 6 6 6 6 4 5 6 5 4 3 2 4
3 0 2 3 4 2 2 2 2 3 3 3 3 3 2 2 2 2 2 2 2 2 3 4 3 4 4 5 6 5 4 6 7 4 2 2 1 3 4 3 3 2 3
4 4 3 2 2 3 2 2 3 1 1 1 2 2 1 3 3 3 2 3 2 2 5 4 4 5 5 5 6 3 4 4 4 5 5 4 6 5 5 5 4 3 3
9 8 7 7 4 3 4 2 3 3 3 3 2 2 1 1 3 2 2 2 3 3 4 5 6 7 7 5 6 4 3 3 1 2 4 3 5 3 3 4 4 4 4
7 8 8 7 6 6 7 5 3 1 2 1 1 1 1 1 2 3 3 3 3 2 4 4 3 5 4 7 4 4 4 4 4 3 0 1 3 4 3 3 4 5 5
6 6 5 6 7 7 6 3 2 2 2 2 1 2 2 3 4 3 1 3 4 3 4 5 5 4 4 5 5 3 5 5 4 5 7 2 2 1 2 2 3 3 3
6 6 5 6 4 4 3 3 3 3 4 4 4 3 3 1 1 2 3 1 3 3 4 4 4 5 4 4 4 5 6 4 4 3 4 2 2 2 1 2 4 4 3
Wind_Direction
124 135 139 140 128 127 134 121 116 100 105 108 101 88 76 66 62 62 76 84 84 81 73 68 65 64 63 63 65 66 65 70 72 72 81 73 70 60 52 47 62 49 63
125 139 141 142 137 120 115 117 106 97 92 95 96 88 80 72 65 64 62 69 89 92 81 71 71 68 64 66 69 71 70 64 73 70 92 89 63 63 56 57 60 55 67
126 130 142 143 139 131 126 120 116 112 105 100 95 89 81 77 71 69 66 64 66 88 101 85 79 75 71 68 67 71 78 34 347 333 269 238 78 71 66 61 60 62 71
119 146 137 133 143 138 139 138 135 127 118 110 101 94 90 90 85 82 76 68 65 63 75 106 92 84 79 75 73 71 65 1 327 321 311 47 92 70 63 58 61 54 66
129 128 126 135 129 135 150 146 148 141 133 124 116 113 107 106 104 107 101 95 76 56 42 104 121 107 93 80 72 63 35 346 327 320 82 8 46 73 66 46 57 58 45
108 117 134 140 143 146 145 159 164 161 148 140 137 133 129 118 116 131 126 99 98 82 59 82 135 125 116 96 71 45 9 344 328 290 63 141 85 70 75 64 62 54 30
121 127 142 150 156 157 159 162 178 169 158 155 151 151 147 143 139 144 121 132 123 114 87 52 39 99 110 134 99 4 343 333 316 315 261 69 120 106 351 186 119 70 326
134 142 146 160 163 166 164 163 167 162 162 164 165 169 168 163 164 169 170 169 173 179 207 159 22 12 316 285 280 284 301 313 311 301 331 106 142 150 264 299 251 255 270
145 145 154 159 165 164 167 160 156 157 166 173 180 189 194 183 178 184 199 209 213 215 227 228 231 247 258 259 262 259 266 281 287 288 316 80 134 171 262 275 273 254 251
154 161 158 159 160 168 169 175 176 198 197 185 198 196 173 240 203 201 208 224 226 221 226 229 226 232 246 254 251 244 252 270 261 264 238 164 166 197 246 254 254 258 261
150 168 164 161 173 175 163 172 177 196 195 208 222 222 215 207 201 209 202 222 215 223 232 236 232 233 242 253 252 240 237 244 252 237 252 169 184 227 255 263 259 263 277
153 178 165 157 168 173 162 138 176 185 190 202 218 215 202 232 229 201 194 204 202 220 238 247 247 241 244 246 254 223 223 237 251 263 243 178 198 234 255 262 263 263 267
161 165 169 165 164 168 168 155 174 185 187 198 203 210 200 213 229 199 170 187 206 222 228 232 235 227 228 229 245 196 219 227 226 240 224 185 205 234 253 260 265 268 271
157 167 175 169 169 181 172 171 183 173 180 190 201 201 209 219 234 236 205 215 191 195 205 228 207 220 215 229 240 271 280 278 257 257 244 193 207 224 248 257 263 265 268
194 174 171 185 179 182 187 186 205 189 177 195 205 195 193 207 212 214 225 228 227 217 214 228 232 240 238 237 246 244 241 261 259 258 256 207 209 221 240 253 260 264 265
175 176 181 178 193 187 180 202 201 201 200 190 202 198 196 203 215 213 219 220 222 218 224 220 220 227 231 225 235 234 239 237 248 249 236 234 218 225 233 241 252 259 267
171 194 190 188 185 203 197 196 197 211 202 208 202 214 201 193 215 232 231 236 226 224 226 233 260 262 254 252 241 239 243 232 229 227 233 210 231 228 225 235 244 251 255
180 188 196 184 186 200 214 205 200 202 205 208 212 211 210 208 205 214 228 241 244 251 235 218 214 235 237 235 244 249 246 256 259 243 224 224 233 198 195 220 238 243 249
187 188 188 183 190 212 225 226 224 210 203 205 205 211 217 207 206 213 232 247 250 246 244 236 251 234 259 252 228 247 230 235 236 248 260 264 235 153 170 201 211 222 232
200 216 225 196 194 193 202 219 233 253 240 221 225 217 213 209 208 206 221 236 249 262 275 274 248 249 249 269 263 250 221 229 235 222 234 235 226 195 188 150 142 126 198
113 133 281 283 276 203 174 183 245 238 244 242 226 234 356 11 349 281 241 251 278 279 278 316 307 271 268 270 273 274 253 236 240 216 267 259 360 4 123 104 87 50 52
50 26 331 226 285 281 218 184 173 148 269 347 341 86 129 265 263 241 247 265 295 313 298 297 293 289 286 278 265 269 277 294 75 48 39 58 47 69 53 42 40 76 63
41 28 9 357 356 358 338 31 39 36 14 360 304 241 254 42 10 339 288 285 263 223 247 247 248 243 262 272 266 231 289 248 96 59 44 39 76 51 96 95 69 30 59
24 24 359 352 16 41 33 32 9 223 236 230 106 92 49 159 254 302 311 298 282 282 283 287 300 279 268 270 294 246 225 226 283 270 128 51 82 89 56 73 88 54 48
42 20 0 32 35 39 32 36 21 328 292 297 303 260 252 252 216 220 269 315 303 298 289 304 303 295 281 282 273 294 295 283 259 271 280 187 313 175 149 121 121 94 83
46 41 33 29 67 50 14 340 326 318 318 329 329 330 299 271 204 183 191 231 290 287 276 269 272 273 283 287 291 295 286 282 285 281 271 168 208 198 206 200 136 143 119